sat.trackr.live / text

‹ back to catalog

STARLINK-35159

NORAD 65461 · 2025-195D

PAYLOAD ACTIVE UNKNOWN

§ Identity

Operator
Country
US
Launch date
2025-09-03
Launch site
AFETR
Launch vehicle
Mass (kg)
RCS (m²)

Purposes: comms

External: N2YO · Heavens-Above · Gunter

§ Orbital elements

Epoch: 2026-09-20T21:55:04.448352Z

Period
93.85 min
Inclination
53.1590°
Eccentricity
0.0001122
Mean motion
15.34402068 rev/d
Perigee alt
461.9 km
Apogee alt
463.5 km
Semi-major
6,840.8 km
B*
5.1425e-4
RAAN
67.8184°
Arg perigee
103.7050°
Mean anomaly
256.4078°
Rev number
5,993

§ Raw data

STARLINK-351591 65461U 25195D   26263.91324593  .00017039  00000+0  51425-3 0  99982 65461  53.1590  67.8184 0001122 103.7050 256.4078 15.34402068 59934

JSON: /api/v1/satellites/65461 · /tle

For live sub-satellite position, see the globe view (requires WebGL).

§ Visibility from observer

Set your observer location to see the next 7 days of passes ≥ 10°. The values pass through the URL so the page stays shareable.

No JS? Fill the form by hand. The geolocation button needs JavaScript.